ATLAS D DEB, 2337

Orbit data source: Space-Track

ATLAS D DEB, 2337 is space debris in LEO originally from a launch on Thu, 14 Jul 1966 UTC launched from the Air Force Western Test Range (AFWTR). Debris objects in space refer to the collection of defunct objects orbiting the Earth. Examples of debris include non-operational satellites, rocket bodies, and fragments generated from explosions, collisions, or faulty payload assembly.

Loading next visibility...
Identifier
2337, 1966-063E
Orbit
LEO
Country
Flag of USUS
Related business
Manufacturer
Unknown
Mission
Spacecraft
Bus & Motor
Unknown
Mass
9 kg wet, 9 kg dry
Launch date (UTC)
1966-07-14 (59 years ago)
Launch vehicle
Unknown
Launch site
Air Force Western Test Range (AFWTR)
Object type
Payload
Rocket body
Debris
Shape & HBR
Trunc Cone, 0.3 m
Radar Cross Section
0.700 m², Medium (>0.1 m² and < 1m²)

Expand to show TLE details & history
Last TLE update: 14 hours ago

TLE from 14 hours ago
0 ATLAS D DEB
1 02337U 66063E   25261.04757084  .00000346  00000-0  10572-3 0  9998
2 02337 144.2324 300.3754 0006150 303.2455  81.4106 13.72225697964679
Epoch: 2025-09-18T01:08Z
TLE epoch observation values (Epoch: 2025-09-18T01:08:30.12Z)
Latitude
14.19137°
Longitude
-94.40454°
Altitude
989.249 km
Speed
7.36 km/s
True Right ascension
18h 39m 44s
True Declination
14° 06' 45"
Sunlit
Object was in daylight at epoch
Visualization orbit readout
Latitude
Unknown
Longitude
Unknown
Altitude
Unknown
Speed
Unknown
Apparent Right ascension
Unknown
Apparent Declination
Unknown
Sunlit
N/A
Visualization observer readout
Local Sidereal Time
07:35:03
Azimuth
Unknown
Elevation
Unknown
Doppler factor
Unknown
Orbital elements
Apogee altitude
999.044 km
Perigee altitude
989.976 km
Semi-major axis
7,372.647 km
Eccentricity
0.00062
Inclination
144.2324°
RAAN
300.3754°
Arg. of periapsis
303.2455°
True anomaly
81.48029°
Mean anomaly
81.4106°
Eccentric anomaly
81.44544°
Mean motion
3.42853 °/min
Orbital period
105 mins
BSTAR
0.00010572
Loading maneuver chart data...
Computing Atmospheric mass density...
Loading historical data...
Loading historical data...
Loading historical data...
Loading historical data...
Loading historical data...
Loading historical data...
Loading historical data...

Documentation

Showing up to 5 results
|